[[{"header":{"parameterUnit":"m.s-1","parameterCategory":1,"la1":30.2991,"la2":30.254,"lo1":-89.0895,"lo2":-89.0444,"dy":0.0017,"dx":0.0017,"nx":28,"ny":28,"refTime":"2024-12-21T03:00:00:Z","depth":0,"parameterNumber":2,"parameterNumberName":"U-component_of_WINDS"},"data":[0,0,0,0,0,0,0,0,0,0,0,0,0,0,0,0,0,0,0,0,0,0,0,0,0,0,0,0,0,0,0,0,0,0,0,0,0,0,0,0,0,0,0,0,0,0,0,0,0,0,0,0,0,0,0,0,0,0,-3.6851,-3.6852,0,-3.6877,-3.6878,-3.6878,-3.6772,-3.6769,-3.6766,-3.6763,-3.679,-3.6794,-3.6798,0,0,0,0,0,0,0,0,0,0,0,0,0,-3.6711,-3.6714,-3.6851,-3.6852,-3.6852,-3.6877,-3.6878,-3.6878,-3.6773,-3.6769,-3.6765,-3.6762,-3.6789,-3.6794,-3.6798,0,0,0,0,0,0,0,0,0,0,0,0,0,-3.6758,-3.6715,-3.6851,-3.6803,-3.6799,-3.6877,-3.6878,-3.6878,-3.6774,-3.6769,-3.6764,-3.676,-3.6788,-3.6793,-3.6798,-3.6925,0,0,-3.6815,-3.6817,0,0,0,0,0,0,0,0,-3.6756,-3.6763,-3.6809,-3.6806,-3.6802,-3.6817,-3.6838,-3.6894,-3.6775,-3.6783,-3.6763,-3.6758,-3.6803,-3.6807,-3.6822,-3.6927,-3.6928,-3.6816,-3.6819,-3.6821,-3.6823,0,0,0,0,0,0,0,-3.6753,-3.6762,-3.6861,-3.681,-3.6806,-3.678,-3.6781,-3.6848,-3.6819,-3.6782,-3.6775,-3.6779,-3.68,-3.6817,-3.6822,-3.6928,-3.6815,-3.682,-3.6824,-3.6826,-3.7138,-3.7143,0,0,0,0,0,0,-3.6756,-3.676,-3.6861,-3.6862,-3.6767,-3.6786,-3.6788,-3.6817,-3.6818,-3.6814,-3.6783,-3.6774,-3.681,-3.6816,-3.6822,-3.6971,-3.6821,-3.6826,-3.6829,-3.7133,-3.7139,-3.7145,0,0,0,0,0,0,-3.6753,-3.6766,-3.686,-3.6809,-3.6819,-3.6793,-3.6827,-3.682,-3.6836,-3.6819,-3.6813,-3.6806,-3.6807,-3.6815,-3.69,-3.6971,-3.6829,-3.6834,-3.7127,-3.7135,-3.7142,-3.727,0,0,0,0,0,0,-3.675,-3.6765,-3.6813,-3.6811,-3.6822,-3.6938,-3.6831,-3.6824,-3.6846,-3.6835,-3.6838,-3.6835,-3.6804,-3.6893,-3.6906,-3.6976,-3.6838,-3.7121,-3.7131,-3.7139,-3.7259,-3.7281,-3.7299,0,0,0,0,0,-3.6745,-3.6848,-3.6816,-3.6829,-3.6881,-3.6942,-3.6948,-3.691,-3.6852,-3.69,-3.6889,-3.6834,-3.6961,-3.6903,-3.6916,-3.6989,-3.7116,-3.7128,-3.7139,-3.725,-3.7277,-3.7299,0,0,0,0,0,0,-3.686,-3.6847,-3.6811,-3.6917,-3.6932,-3.6924,-3.6983,-3.6939,-3.6971,-3.6959,-3.691,-3.6912,-3.7006,-3.7006,-3.6941,-3.7111,-3.7028,-3.7043,-3.7109,-3.7133,-3.7153,-3.7152,-3.6842,0,0,0,0,0,-3.6898,-3.6948,-3.6934,-3.7028,-3.7037,-3.701,-3.7034,-3.7004,-3.7017,-3.7022,-3.7017,-3.7032,-3.7074,-3.7104,-3.7142,-3.7258,-3.7258,-3.7315,-3.7335,-3.7352,-3.7365,-3.7427,-3.7452,-3.7182,-3.7182,-3.7181,0,0,-3.6976,-3.6975,-3.701,-3.7052,-3.7059,-3.7112,-3.7015,-3.7075,-3.7114,-3.7031,-3.7112,-3.7109,-3.7122,-3.7224,-3.7268,-3.7226,-3.7439,-3.7366,-3.7379,-3.7384,-3.7441,-3.7467,-3.7489,-3.7189,-3.7188,-3.7187,0,0,-3.7146,-3.715,-3.723,-3.7239,-3.7252,-3.7232,-3.7252,-3.7251,-3.7246,-3.7326,-3.7264,-3.731,-3.7385,-3.7397,-3.7413,-3.7588,-3.7539,-3.7601,-3.7706,-3.7767,-3.7789,-3.7807,-3.787,-3.7893,-3.7615,-3.7615,-3.7615,0,-3.7242,-3.732,-3.7276,-3.7341,-3.7361,-3.7288,-3.7369,-3.738,-3.7404,-3.742,-3.7373,-3.7465,-3.7469,-3.7572,-3.7615,-3.763,-3.7651,-3.7601,-3.7789,-3.7807,-3.7824,-3.7883,-3.7907,-3.7623,-3.7622,-3.7621,-3.762,0,-3.7437,-3.7492,-3.7555,-3.758,-3.7607,-3.768,-3.7648,-3.768,-3.7648,-3.7634,-3.7716,-3.7718,-3.7756,-3.7778,-3.7746,-3.7877,-3.7851,-3.7797,-3.7713,-3.7858,-3.7913,-3.7935,-3.7633,-3.7631,-3.7628,-3.7626,0,0,-3.7681,-3.7682,-3.7706,-3.7716,-3.7725,-3.7766,-3.7835,-3.7872,-3.7901,-3.792,-3.7977,-3.8042,-3.7992,-3.801,-3.798,-3.8033,-3.8172,-3.7972,-3.7972,-3.801,-3.8317,-3.8358,-3.8385,-3.8139,-3.8143,-3.8147,-3.8316,0,-3.7848,-3.7966,-3.7929,-3.8048,-3.8099,-3.803,-3.809,-3.8102,-3.809,-3.8131,-3.8118,-3.8165,-3.8096,-3.8106,-3.8156,-3.8145,-3.8233,-3.8132,-3.8192,-3.8195,-3.8192,-3.8413,-3.8457,-3.8616,-3.8337,-3.8341,-3.8343,0,-3.8059,-3.8087,-3.8212,-3.8211,-3.8231,-3.8286,-3.8316,-3.8356,-3.8368,-3.8356,-3.8377,-3.8335,-3.8402,-3.8317,-3.841,-3.8342,-3.8364,-3.8363,-3.8368,-3.8372,-3.8278,-3.8425,-3.8666,-3.869,-3.8376,-3.8374,-3.8371,0,-3.8226,-3.8294,-3.8377,-3.8388,-3.839,-3.843,-3.8433,-3.844,-3.8465,-3.8491,-3.8507,-3.8541,-3.8561,-3.8588,-3.8557,-3.8498,-3.8654,-3.8567,-3.8646,-3.8648,-3.8683,-3.8681,-3.8932,-3.8697,-3.8697,-3.8696,-3.8696,0,-3.8417,-3.8496,-3.8452,-3.8503,-3.859,-3.8546,-3.8633,-3.8628,-3.8635,-3.8684,-3.8626,-3.8674,-3.8629,-3.8672,-3.8648,-3.8728,-3.8737,-3.8729,-3.8722,-3.8735,-3.8736,-3.875,-3.8738,-3.8703,-3.8701,-3.87,-3.8699,0,-3.8617,-3.8591,-3.8677,-3.8672,-3.8673,-3.8737,-3.8732,-3.8779,-3.8763,-3.8826,-3.8838,-3.8814,-3.8862,-3.8833,-3.8882,-3.8865,-3.8971,-3.8948,-3.8967,-3.8961,-3.9043,-3.9036,-3.9311,-3.9345,-3.9088,-3.9091,-3.9093,0,-3.8741,-3.88,-3.8802,-3.883,-3.8837,-3.8884,-3.8908,-3.8868,-3.8896,-3.8914,-3.8959,-3.9002,-3.9035,-3.9114,-3.9101,-3.9138,-3.9116,-3.921,-3.9121,-3.9132,-3.9118,-3.9115,-3.9121,-3.9228,-3.9231,-3.9234,-3.9236,0,-3.8965,-3.8949,-3.8986,-3.902,-3.9051,-3.9076,-3.9095,-3.9122,-3.9082,-3.9116,-3.9164,-3.919,-3.9239,-3.9283,-3.9314,-3.9316,-3.927,-3.9264,-3.9284,-3.9298,-3.9307,-3.9304,-3.9016,-3.9258,-3.9256,-3.9254,-3.9253,-3.9252,-3.9131,-3.918,-3.9189,-3.9233,-3.9243,-3.9263,-3.9307,-3.9297,-3.9337,-3.9374,-3.9348,-3.9405,-3.9415,-3.9452,-3.9461,-3.9505,-3.9467,-3.9497,-3.9504,-3.9512,-3.9524,-3.93,-3.9511,-3.951,-3.9509,-3.9509,-3.9508,0,-3.9351,-3.9353,-3.9394,-3.9424,-3.9458,-3.9411,-3.943,-3.9463,-3.9514,-3.9527,-3.956,-3.9616,-3.9658,-3.9648,-3.9685,-3.9723,-3.9702,-3.9734,-3.9731,-3.9732,-3.9555,-3.9534,-3.975,-3.975,-3.975,-3.975,-3.975,-3.975,-3.947,-3.9551,-3.9536,-3.9622,-3.9623,-3.9679,-3.9694,-3.9712,-3.9723,-3.9788,-3.9822,-3.9815,-3.9819,-3.9856,-3.9893,-3.9889,-3.9905,-3.9945,-3.9934,-3.9769,-3.9745,-3.9722,-3.9702,-3.9949,-3.9949,-4.0107,-4.0108,-4.0109]},{"header":{"parameterUnit":"m.s-1","parameterCategory":1,"la1":30.2991,"la2":30.254,"lo1":-89.0895,"lo2":-89.0444,"dy":0.0017,"dx":0.0017,"nx":28,"ny":28,"refTime":"2024-12-21T03:00:00:Z","depth":0,"parameterNumber":3,"parameterNumberName":"V-component_of_WINDS"},"data":[0,0,0,0,0,0,0,0,0,0,0,0,0,0,0,0,0,0,0,0,0,0,0,0,0,0,0,0,0,0,0,0,0,0,0,0,0,0,0,0,0,0,0,0,0,0,0,0,0,0,0,0,0,0,0,0,0,0,-3.1856,-3.1856,0,-3.187,-3.187,-3.187,-3.183,-3.1829,-3.1827,-3.1826,-3.184,-3.1841,-3.1843,0,0,0,0,0,0,0,0,0,0,0,0,0,-3.1793,-3.1794,-3.1856,-3.1856,-3.1856,-3.187,-3.187,-3.187,-3.183,-3.1829,-3.1827,-3.1826,-3.1839,-3.1841,-3.1843,0,0,0,0,0,0,0,0,0,0,0,0,0,-3.1815,-3.1795,-3.1856,-3.1838,-3.1836,-3.187,-3.187,-3.187,-3.183,-3.1829,-3.1827,-3.1825,-3.1839,-3.1841,-3.1843,-3.1894,0,0,-3.185,-3.1851,0,0,0,0,0,0,0,0,-3.1814,-3.1817,-3.184,-3.1839,-3.1838,-3.1846,-3.1853,-3.1878,-3.1831,-3.1833,-3.1826,-3.1824,-3.1843,-3.1845,-3.1852,-3.1895,-3.1896,-3.185,-3.1852,-3.1853,-3.1853,0,0,0,0,0,0,0,-3.1812,-3.1816,-3.1861,-3.1841,-3.1839,-3.1829,-3.183,-3.1857,-3.1848,-3.1832,-3.1829,-3.1832,-3.1842,-3.185,-3.1852,-3.1896,-3.185,-3.1852,-3.1854,-3.1855,-3.198,-3.1982,0,0,0,0,0,0,-3.1813,-3.1815,-3.1861,-3.1862,-3.1821,-3.1831,-3.1832,-3.1845,-3.1848,-3.1846,-3.1833,-3.183,-3.1847,-3.1849,-3.1852,-3.1911,-3.1853,-3.1855,-3.1856,-3.1978,-3.198,-3.1982,0,0,0,0,0,0,-3.1812,-3.1818,-3.186,-3.1838,-3.1842,-3.1834,-3.1849,-3.1847,-3.1854,-3.1849,-3.1847,-3.1843,-3.1845,-3.1849,-3.1884,-3.1911,-3.1856,-3.1858,-3.1976,-3.1979,-3.1981,-3.2031,0,0,0,0,0,0,-3.181,-3.1817,-3.1837,-3.1839,-3.1844,-3.1893,-3.1851,-3.1848,-3.1858,-3.1854,-3.1857,-3.1856,-3.1844,-3.1881,-3.1886,-3.1913,-3.186,-3.1973,-3.1977,-3.198,-3.2026,-3.2035,-3.2042,0,0,0,0,0,-3.1808,-3.1851,-3.1839,-3.1844,-3.1869,-3.1894,-3.1897,-3.1883,-3.1861,-3.188,-3.1876,-3.1856,-3.1907,-3.1885,-3.189,-3.1919,-3.1971,-3.1976,-3.198,-3.2023,-3.2033,-3.2042,0,0,0,0,0,0,-3.1853,-3.1851,-3.1837,-3.1882,-3.1888,-3.1887,-3.1912,-3.1895,-3.1908,-3.1904,-3.1886,-3.1887,-3.1925,-3.1925,-3.19,-3.1968,-3.1935,-3.1941,-3.1966,-3.1976,-3.1983,-3.1982,-3.1861,0,0,0,0,0,-3.1868,-3.189,-3.1886,-3.1926,-3.193,-3.192,-3.1931,-3.192,-3.1926,-3.1929,-3.1927,-3.1934,-3.1951,-3.1964,-3.198,-3.2026,-3.2026,-3.2048,-3.2056,-3.2063,-3.2068,-3.2091,-3.2101,-3.1997,-3.1997,-3.1997,0,0,-3.19,-3.1901,-3.1916,-3.1935,-3.1939,-3.1961,-3.1923,-3.1948,-3.1964,-3.1932,-3.1965,-3.1964,-3.197,-3.2011,-3.2029,-3.2013,-3.2096,-3.2068,-3.2073,-3.2075,-3.2097,-3.2107,-3.2115,-3.2,-3.1999,-3.1999,0,0,-3.1968,-3.1972,-3.2004,-3.2009,-3.2015,-3.2008,-3.2016,-3.2018,-3.2016,-3.2048,-3.2025,-3.2043,-3.2074,-3.2079,-3.2085,-3.2154,-3.2135,-3.216,-3.22,-3.2223,-3.2231,-3.2239,-3.2262,-3.2271,-3.2165,-3.2165,-3.2165,0,-3.2007,-3.2039,-3.2023,-3.205,-3.2058,-3.203,-3.2063,-3.2068,-3.2079,-3.2085,-3.2067,-3.2104,-3.2106,-3.2147,-3.2164,-3.217,-3.2178,-3.2159,-3.2232,-3.2239,-3.2245,-3.2267,-3.2276,-3.2168,-3.2168,-3.2167,-3.2167,0,-3.2085,-3.2108,-3.2133,-3.2145,-3.2156,-3.2185,-3.2173,-3.2187,-3.2174,-3.2169,-3.2201,-3.2203,-3.2218,-3.2227,-3.2215,-3.2266,-3.2255,-3.2235,-3.2202,-3.2258,-3.2279,-3.2287,-3.2172,-3.2171,-3.217,-3.2169,0,0,-3.2183,-3.2184,-3.2194,-3.2198,-3.2202,-3.2219,-3.2247,-3.2261,-3.2273,-3.2281,-3.2303,-3.2329,-3.231,-3.2317,-3.2305,-3.2326,-3.2379,-3.2302,-3.2302,-3.2316,-3.2434,-3.2449,-3.2459,-3.2366,-3.2368,-3.2369,-3.2433,0,-3.225,-3.2297,-3.2283,-3.233,-3.235,-3.2323,-3.2347,-3.2352,-3.2347,-3.2363,-3.2358,-3.2377,-3.235,-3.2354,-3.2373,-3.2368,-3.2402,-3.2364,-3.2386,-3.2387,-3.2385,-3.247,-3.2486,-3.2546,-3.2441,-3.2442,-3.2443,0,-3.2334,-3.2345,-3.2395,-3.2394,-3.2402,-3.2423,-3.2435,-3.2451,-3.2455,-3.245,-3.2458,-3.2442,-3.2468,-3.2435,-3.247,-3.2444,-3.2452,-3.2451,-3.2453,-3.2455,-3.2418,-3.2473,-3.2565,-3.2574,-3.2456,-3.2455,-3.2454,0,-3.24,-3.2427,-3.2459,-3.2464,-3.2464,-3.248,-3.2481,-3.2483,-3.2493,-3.2503,-3.2508,-3.2521,-3.2529,-3.2539,-3.2526,-3.2503,-3.2563,-3.2529,-3.2559,-3.2559,-3.2572,-3.2572,-3.2667,-3.2579,-3.2578,-3.2578,-3.2578,0,-3.2475,-3.2506,-3.2489,-3.2509,-3.2542,-3.2525,-3.2558,-3.2556,-3.2558,-3.2577,-3.2554,-3.2572,-3.2554,-3.257,-3.2561,-3.2591,-3.2594,-3.2591,-3.2587,-3.2592,-3.2593,-3.2597,-3.2592,-3.2581,-3.258,-3.258,-3.2579,0,-3.2554,-3.2544,-3.2577,-3.2575,-3.2575,-3.2599,-3.2596,-3.2614,-3.2608,-3.2632,-3.2636,-3.2626,-3.2643,-3.2632,-3.265,-3.2643,-3.2682,-3.2673,-3.268,-3.2678,-3.2708,-3.2705,-3.2809,-3.2821,-3.2726,-3.2727,-3.2728,0,-3.2603,-3.2626,-3.2626,-3.2636,-3.2638,-3.2656,-3.2665,-3.2649,-3.2659,-3.2665,-3.2682,-3.2698,-3.2709,-3.2738,-3.2732,-3.2745,-3.2736,-3.2772,-3.2738,-3.2742,-3.2736,-3.2735,-3.2736,-3.2779,-3.278,-3.2781,-3.2782,0,-3.2691,-3.2684,-3.2698,-3.271,-3.2721,-3.273,-3.2737,-3.2747,-3.273,-3.2743,-3.276,-3.2769,-3.2786,-3.2802,-3.2812,-3.2813,-3.2794,-3.2792,-3.28,-3.2805,-3.2807,-3.2805,-3.2698,-3.279,-3.2789,-3.2788,-3.2788,-3.2788,-3.2755,-3.2774,-3.2776,-3.2792,-3.2795,-3.2802,-3.2818,-3.2813,-3.2827,-3.284,-3.283,-3.285,-3.2853,-3.2865,-3.2868,-3.2883,-3.2868,-3.2879,-3.2882,-3.2885,-3.2889,-3.2805,-3.2885,-3.2885,-3.2884,-3.2884,-3.2884,0,-3.2841,-3.284,-3.2855,-3.2865,-3.2877,-3.2859,-3.2865,-3.2876,-3.2894,-3.2898,-3.291,-3.2929,-3.2944,-3.2938,-3.2951,-3.2964,-3.2956,-3.2968,-3.2967,-3.2967,-3.2902,-3.2893,-3.2975,-3.2975,-3.2975,-3.2975,-3.2975,-3.2975,-3.2887,-3.2917,-3.291,-3.2941,-3.294,-3.296,-3.2965,-3.2971,-3.2973,-3.2996,-3.3008,-3.3004,-3.3004,-3.3016,-3.3028,-3.3026,-3.3032,-3.3047,-3.3042,-3.2981,-3.2972,-3.2963,-3.2956,-3.3048,-3.3049,-3.3106,-3.3106,-3.3107]}]]